CW2732 Weather Reports


Display with metric or nautical units.
time (UTC)temp
F
wind
direction
speed
MPH
gust
MPH
rain 1hr
in
rain 24hr
in
rain mn
in
humidity
%
barometer
mb
20260504070401 63 27 0.0 0.0 0.08 0.55 0.11 92 1013.5
20260504050341 63 279 0.0 0.0 0.04 0.35 0.07 91 1013.0
20260504045355 63 360 0.0 0.0 0.04 0.35 0.07 91 1013.1
20260504044345 63 355 0.0 0.0 0.04 0.35 0.07 91 1013.0
20260504043400 63 360 0.0 0.0 0.00 0.31 0.06 91 1013.0
20260504042330 63 17 0.0 3.0 0.00 0.31 0.06 91 1013.0
20260504041330 63 19 1.0 3.0 0.00 0.31 0.06 91 1013.0
20260504040405 63 24 0.0 2.0 0.00 0.31 0.06 91 1013.1
20260504035337 63 360 1.0 2.0 0.00 0.31 0.06 91 1013.1
20260504034344 63 346 0.0 2.0 0.00 0.31 0.06 91 1013.1
20260504033344 63 360 0.0 2.0 0.00 0.31 0.06 91 1013.3
20260504032336 63 338 0.0 1.0 0.04 0.31 0.06 91 1013.4
20260504031335 63 360 0.0 2.0 0.16 0.31 0.06 91 1013.4
20260504030349 63 22 1.0 5.0 0.20 0.31 0.06 91 1013.5
20260504025331 63 10 0.0 4.0 0.20 0.31 0.06 91 1013.7
20260504024331 62 360 0.0 4.0 0.24 0.31 0.06 91 1013.7
20260504023349 63 38 1.0 3.0 0.28 0.31 0.06 91 1013.8
20260504022338 63 15 0.0 3.0 0.28 0.28 0.06 90 1013.8
20260504021338 63 47 0.0 3.0 0.12 0.12 0.02 90 1013.7
20260504020413 63 41 0.0 1.0 0.12 0.12 0.02 90 1013.7
20260504015334 63 350 0.0 0.0 0.12 0.12 0.02 90 1013.8
20260504014353 63 304 0.0 0.0 0.08 0.08 0.02 90 1013.9
20260504013329 63 76 0.0 0.0 0.04 0.04 0.01 89 1013.9
20260504012348 63 26 0.0 0.0 0.00 0.00 0.00 88 1013.9
20260504011338 63 350 0.0 0.0 0.00 0.00 0.00 88 1014.0
20260504010328 64 63 0.0 0.0 0.00 0.00 0.00 87 1014.0
20260504005349 64 71 0.0 2.0 0.00 0.00 0.00 86 1014.0
20260504004334 65 74 2.0 4.0 0.00 0.00 0.00 85 1014.1
20260504003353 65 52 1.0 4.0 0.00 0.00 0.00 84 1014.1
20260504002343 65 91 2.0 5.0 0.00 0.00 0.00 83 1014.0
20260504001339 65 18 2.0 4.0 0.00 0.00 0.00 83 1014.0
20260504000355 65 72 0.0 4.0 0.00 0.00 0.00 83 1014.0
20260503235340 65 74 1.0 2.0 0.00 0.00 0.00 83 1014.1
20260503234359 65 33 2.0 3.0 0.00 0.00 0.00 83 1014.2
20260503233358 65 114 1.0 5.0 0.00 0.00 0.00 84 1014.3
20260503232332 65 57 3.0 5.0 0.00 0.00 0.00 84 1014.3
20260503231351 65 82 2.0 5.0 0.00 0.00 0.00 85 1014.4
20260503230340 65 25 1.0 3.0 0.00 0.00 0.00 85 1014.4
20260503225334 65 41 1.0 4.0 0.00 0.00 0.00 85 1014.4
20260503224349 65 10 2.0 4.0 0.00 0.00 0.00 85 1014.4
20260503223334 65 44 3.0 5.0 0.00 0.00 0.00 86 1014.5
20260503222334 65 69 2.0 6.0 0.00 0.00 0.00 86 1014.5
20260503221343 65 49 1.0 4.0 0.00 0.00 0.00 86 1014.7
20260503220342 65 75 1.0 5.0 0.00 0.00 0.00 87 1014.7
20260503215332 65 23 2.0 4.0 0.00 0.00 0.00 87 1014.7
20260503214340 65 76 2.0 4.0 0.00 0.00 0.00 87 1014.8
20260503213339 65 95 2.0 4.0 0.00 0.00 0.00 87 1015.0
20260503212338 65 104 3.0 4.0 0.00 0.00 0.00 87 1015.1
20260503211353 65 83 2.0 7.0 0.00 0.00 0.00 87 1015.0
20260503210339 65 31 1.0 4.0 0.00 0.00 0.00 87 1015.0
20260503205332 65 111 1.0 4.0 0.00 0.00 0.00 87 1015.0
20260503204351 65 79 4.0 8.0 0.00 0.00 0.00 87 1014.9
20260503203340 65 77 3.0 7.0 0.00 0.00 0.00 87 1014.9
20260503202341 64 98 3.0 7.0 0.00 0.00 0.00 87 1014.9
20260503201332 64 109 4.0 8.0 0.00 0.00 0.00 87 1014.7
20260503200331 64 57 4.0 7.0 0.00 0.00 0.00 87 1014.4
20260503195343 65 74 4.0 8.0 0.00 0.00 0.00 86 1014.3
20260503194331 65 91 4.0 10.0 0.00 0.00 0.00 86 1014.0
20260503193330 65 79 3.0 9.0 0.00 0.00 0.00 86 1013.7
20260503192349 65 84 3.0 9.0 0.00 0.00 0.00 85 1013.5
20260503191338 65 100 5.0 9.0 0.00 0.00 0.00 85 1013.3
20260503190329 65 101 5.0 11.0 0.00 0.00 0.00 85 1013.3
20260503185340 65 39 7.0 12.0 0.00 0.00 0.00 84 1013.2
20260503184340 65 67 5.0 9.0 0.00 0.00 0.00 84 1013.3
20260503183339 66 52 5.0 9.0 0.00 0.00 0.00 84 1013.3
20260503182330 66 78 5.0 11.0 0.00 0.00 0.00 83 1013.2
20260503181342 66 82 7.0 13.0 0.00 0.00 0.00 83 1013.1
20260503180332 66 49 6.0 13.0 0.00 0.00 0.00 81 1013.0
20260503175414 66 66 7.0 11.0 0.00 0.00 0.00 81 1012.9
20260503174340 66 67 6.0 18.0 0.00 0.00 0.00 80 1012.9
20260503173400 67 61 5.0 18.0 0.00 0.00 0.00 79 1013.0
20260503172337 67 30 5.0 18.0 0.00 0.00 0.00 78 1012.7
20260503171344 67 90 6.0 18.0 0.00 0.00 0.00 79 1012.7
20260503170340 68 49 8.0 18.0 0.00 0.00 0.00 77 1012.7
20260503150343 73 88 7.0 13.0 0.00 0.00 0.00 63 1012.8
20260503131333 80 41 4.0 13.0 0.00 0.00 0.00 55 1013.5
20260503130353 78 175 3.0 10.0 0.00 0.00 0.00 56 1013.7
20260503110335 71 21 2.0 10.0 0.00 0.00 0.00 69 1015.1
20260503090339 66 68 6.0 10.0 0.00 0.00 0.00 80 1016.3
20260503081340 64 88 5.0 9.0 0.00 0.00 0.00 87 1016.4
20260503080330 64 40 4.0 9.0 0.00 0.00 0.00 88 1016.3